Find Starlink 2578

NORAD ID: 48362 Int'l Des: 2021-038 Owner: SPXS Country: US Constellation: starlink operational
LEOCIRCULAR

現在のビュー

3D地球を読み込み中...

About Starlink 2578

Starlink 2578 (NORAD 48362) is a starlink constellation satellite (v1.0) launched May 4, 2021 by SPXS of US. It operates in LEO, CIRCULAR orbit with a mass of 260.00 kg.

Starlink 2578について

説明を読み込み中...

次回通過

Passes for default location (London). Set your location on the main map for personalized predictions.

高度履歴

Loading altitude history...

軌道要素

1 48362U 21038K 26169.94306959 .00001491 00000-0 59788-4 0 9992
2 48362 53.1580 247.0925 0001104 78.5528 281.5597 15.31705922282595
Epoch: Jun 18, 2026 • Age: 13 hours

現在のステータス

高度 471.4 km
速度 7.63 km/s
衛星直下点 26.89°N, 170.52°W
打ち上げ日 May 4, 2021
運用期間 5.1 years
タイプ internet

技術仕様

分類 Payload
質量 260.00 kg
乾燥質量 248.00 kg
総質量 260.00 kg
長さ 0.20 m
直径 2.80 m
スパン 9.00 m
形状 Box + pan
製造者 SPXS
バスタイプ Starlink
フェーズステータス In Orbit
所有者/国 SPXS/US

Most Searched